Вернуться в каталог

METEOR 3-1 DEB

LostPO
NORAD 45520·DEBRIS·🇷🇺 Russia

Запущен Oct 24, 1985 с Plesetsk Cosmodrome

Loading…

Ближайшие Пролёты (ближайшие 24 часа)

TLE

УстаревшееSource: Space-Track

Эпоха: Nov 9, 2023, 06:47 UTC

1 45520U 85100F   23313.28285882  .00001058  00000-0  25051-2 0  9994
2 45520  82.5383 326.6338 0015059 176.6091 183.5139 13.22472497327810

Отслеживайте METEOR 3-1 DEB в реальном времени с AllMySat

Download on the App Store